Regional Weather Roundup
Issued by NWS Midland/Odessa, TX

Skip options and go directly to product.
Home | Oldest Version | Previous Version | Current Version | All | Text Only | Save Text | Print | Product List | Glossary On

Skip product version selection by date and time.   
582
ASUS44 KMAF 281110
RWRMAF
MIDLAND AREA WEATHER ROUNDUP
NATIONAL WEATHER SERVICE MIDLAND TX
500 AM CST FRI NOV 28 2014

...IN SOUTHWEST TEXAS AND SOUTHEAST NEW MEXICO...

CITY           SKY/WX    TMP DP  RH WIND       PRES   REMARKS
ALPINE         CLEAR     45  23  41 SW15      30.32F WCI  39
ANDREWS        FAIR      41  33  74 SW8       30.20F WCI  36
ARTESIA        NOT AVBL
BIG SPRING     CLEAR     45  33  64 S13       30.23F WCI  38
CARLSBAD       PTCLDY    32  27  81 N5        30.18F WCI  27
DRYDEN           N/A     42  36  79 N7        30.25F WCI  38
FORT STOCKTON  PTCLDY    47  28  47 S14       30.21F
GUAD PASS      NOT AVBL
HOBBS          CLEAR     34  28  80 CALM      30.20F
MARFA          PTCLDY    25  18  74 N3        30.31F
MIDLAND AIRPK  CLEAR     46  35  67 S7        30.21F
MIDLAND INTL   CLEAR     43  34  70 S7        30.21F WCI  39
ODESSA         CLEAR     45  34  65 S13       30.22F WCI  39
PECOS          PTCLDY    30  25  81 CALM      30.20F
PRESIDIO       FAIR      47  27  44 N10       30.27S
SEMINOLE       CLEAR     35  31  84 CALM      30.20F
SNYDER         CLEAR     36  32  84 SW5       30.21F WCI  32
WINK           CLEAR     37  30  75 SE6       30.19F WCI  32
$$
...OTHER STATIONS IN TEXAS...

CITY           SKY/WX    TMP DP  RH WIND       PRES   REMARKS
ABILENE        CLEAR     48  34  58 S14       30.21F
AMARILLO       CLEAR     40  29  64 SW13      30.08F WCI  32
AUSTIN         CLEAR     35  33  92 CALM      30.32F
BROWNSVILLE    FOG       50  49  96 CALM      30.31F VSB 3/4
CORPUS CHRISTI MOCLDY    55  55 100 SW5       30.31F
DALLAS FTW     CLEAR     42  29  59 S8        30.26F WCI  37
DEL RIO        CLEAR     44  41  89 SE6       30.28F
EL PASO        PTCLDY    39  20  46 N7        30.25F WCI  34
HOUSTON INT    CLEAR     43  41  93 CALM      30.36F
LUBBOCK        PTCLDY    43  30  60 SW16      30.14F WCI  35
SAN ANGELO     CLEAR     48  38  68 SW15      30.23F
SAN ANTONIO    CLEAR     42  37  82 NW5       30.32F WCI  39
WACO           CLEAR     41  34  76 S8        30.30F WCI  36
WICHITA FALLS  NOT AVBL
$$
...OTHER LOCATIONS IN NEW MEXICO...

CITY           SKY/WX    TMP DP  RH WIND       PRES   REMARKS
ALAMAGORDO     PTCLDY    34  18  51 NE5       30.27S WCI  30
ALBUQUERQUE    PTCLDY    38  21  50 CALM      30.29F
CANNON AFB     CLOUDY    40  27  60 W7        30.15F WCI  35
CLOVIS         CLOUDY    39  27  60 W13       30.13F WCI  32
HOLLOMAN AFB   PTCLDY    31  18  58 CALM      30.26F
ROSWELL        PTCLDY    34  27  75 NW5       30.20F WCI  30
RUIDOSO        CLEAR     41  16  36 W7        30.32F WCI  36
SANTA FE       PTCLDY    26  16  65 NE6       30.29F WCI  19
TRUTH OR CONSE CLEAR     39  19  44 NW7       30.27F WCI  34
TUCUMCARI      MOCLDY    44  24  45 SW12      30.10F WCI  38
$$

USA.gov is the U.S. government's official web portal to all federal, state and local government web resources and services.